ESTCUBE 1 (39161 NORAD) Tracking and Keplerian Element Data

This shows tracking and keplerian element data for the satellite.

Feedback or suggestion? Click here.




ElementValue
Catalog39161
NameESTCUBE 1
Epoch Orbit63138
Epoch Day35.14497613
Epoch Year2025
RAAN100.5605
Inclination97.7987
Eccentricity0.0008394
Argument of Perigee189.7733
Mean Anonmoly170.3316
Mean Motion14.78815507
Decay Rate3.656E-05
L11 39161U 13021C 25035.14497613 .00003656 00000+0 50352-3 0 9994
L22 39161 97.7987 100.5605 0008394 189.7733 170.3316 14.78815507631386



Live tracking and technical data element details for ESTCUBE 1 (NORAD 39161). ESTCUBE 1 can be tracked NOW for your location showing map with azimuth and elevation plus other details from your city location.







IsCatalogInMostPopularTable: catalog: 39161, numindb: 493
Update: records affected: 1



GetName: 39161 ESTCUBE 1

Hit Count: updated at: Sat, 17 May 2025 09:13:40 GMT